Regional Weather Roundup
Issued by NWS

Home | Current Version | Previous Version | Graphics & Text | Print | Product List | Glossary On
Versions: 1 2 3 4 5 6 7 8 9 10 11 12 13 14 15 16 17 18 19 20 21 22 23 24 25 26 27 28 29 30 31 32 33 34 35 36 37 38 39 40 41 42 43 44 45 46 47 48 49 50
000
ASUS43 KFSD 061510
RWRSD

WEATHER ROUNDUP FOR SOUTH DAKOTA
NATIONAL WEATHER SERVICE SIOUX FALLS SD
1000 AM CDT FRI MAY 06 2016

NOTE: "FAIR" INDICATES FEW OR NO CLOUDS BELOW 12,000 FEET WITH NO
SIGNIFICANT WEATHER AND/OR OBSTRUCTIONS TO VISIBILITY.


SDZ001>005-009-010-012>017-061600-
NORTHWEST AND NORTH CENTRAL SOUTH DAKOTA

CITY           SKY/WX    TMP DP  RH WIND       PRES   REMARKS
BUFFALO          N/A     68  45  43 N16       29.92R
FAITH            N/A     69  50  50 N8        29.88R
MOBRIDGE       SUNNY     70  54  56 W5        29.81  HAZE
$$

SDZ012>016-024>037-041>051-057-063-072>074-061600-
SOUTHWEST AND SOUTH CENTRAL SOUTH DAKOTA

CITY           SKY/WX    TMP DP  RH WIND       PRES   REMARKS
RAPID CTY ARPT SUNNY     71  54  54 CALM      29.91R
PIERRE         SUNNY     70  52  52 W8        29.83S
CUSTER         CLOUDY    73  29  19 NE5       30.04R
ELLSWORTH AFB  SUNNY     73  46  37 N3        29.91R
PHILIP         SUNNY     71  53  52 W9        29.86R
PINE RIDGE     PTSUNNY   69  48  47 S15       29.92S
WINNER         FAIR      74  52  46 SW16G26   29.88R
$$

SDZ004>011-016>023-039-040-061600-
NORTHEAST SOUTH DAKOTA

CITY           SKY/WX    TMP DP  RH WIND       PRES   REMARKS
ABERDEEN       SUNNY     73  52  47 W8        29.80R
WATERTOWN      SUNNY     73  51  46 SW18      29.81F
BROOKINGS      SUNNY     73  50  44 SW22G30   29.84F
SISSETON         N/A     76  53  44 W12       29.75S
$$

SDZ017-020-022-023-036>040-048>070-061600-
SOUTHEAST SOUTH DAKOTA

CITY           SKY/WX    TMP DP  RH WIND       PRES   REMARKS
SIOUX FALLS    MOSUNNY   70  51  51 S9        29.90S
HURON          SUNNY     75  53  46 W13       29.83S
CHAMBERLAIN    SUNNY     73  56  53 SW13      29.87S
MITCHELL       MOSUNNY   75  52  44 SW13      29.87F
YANKTON        SUNNY     72  48  43 SW16      29.90S
$$

ABBREVIATIONS USED IN REMARKS
   TC - TEMPERATURE IN CELSIUS
  WCI - WIND CHILL INDEX
   HX - HEAT INDEX
  VSB - VISIBILITY





USA.gov is the U.S. government's official web portal to all federal, state and local government web resources and services.